Spearman, TX

5:31 AM CDT on September 26, 2016 (GMT -0500)
Pampa / Mesa Vista

Weather History for KBPC - August, 2014

Change the Weather History Date:

Saturday, August 30, 2014

  Actual Average (KBGD) Record (KBGD)
Temperature  
Mean Temperature 76 °F 77 °F  
Max Temperature 91 °F 90 °F 104 °F (2011)
Min Temperature 60 °F 65 °F 55 °F (1950)
Degree Days  
Heating Degree Days 0 0  
Month to date heating degree days 0  
Since 1 June heating degree days 3  
Since 1 July heating degree days 0  
Cooling Degree Days 10 12  
Month to date cooling degree days 457  
Year to date cooling degree days 1538  
Since 1 June cooling degree days 1341  
Growing Degree Days 26 (Base 50)    
Moisture  
Dew Point 58 °F    
Average Humidity 59    
Maximum Humidity 100    
Minimum Humidity 24    
Precipitation  
Precipitation 0.00 in 0.10 in 2.35 in (2003)
Month to date precipitation 3.08  
Year to date precipitation 15.92  
Snow  
Snow 0.00 in - 0.00 in (2013)
Month to date snowfall  
Since 1 June snowfall  
Since 1 July snowfall  
Snow Depth -    
Sea Level Pressure  
Sea Level Pressure 29.99 in    
Wind  
Wind Speed 6 mph (South)    
Max Wind Speed 20 mph    
Max Gust Speed 28 mph    
Visibility 10 miles    
Events      
T = Trace of Precipitation, MM = Missing Value Source: NWS Daily Summary

Daily Weather History Graph

Daily Weather History Graph

Search for Another Location

Airport or City:

Trip Planner

Search our weather history database for the weather conditions in past years. The results will help you decide how hot, cold, wet, or windy it might be!

Date:

Astronomy

Aug. 30, 2014 Rise Set
Actual Time 7:14 AM CDT 8:14 PM CDT
Civil Twilight 6:48 AM CDT 8:40 PM CDT
Nautical Twilight 6:17 AM CDT 9:11 PM CDT
Astronomical Twilight 5:44 AM CDT 9:43 PM CDT
Moon 11:53 AM CDT (8/30) 11:00 PM CDT (8/30)
Length of Visible Light 13h 52m
Length of Day
12h 59m
Waxing Crescent, 23% of the Moon is Illuminated
Aug 30
Waxing Crescent
Sep 2
First Quarter
Sep 8
Full
Sep 15
Last Quarter
Sep 24
New

Hourly Weather History & Observations

Time (CDT) Temp. Heat Index Dew Point Humidity Pressure Visibility Wind Dir Wind Speed Gust Speed Precip Events Conditions
12:15 AM 66.2 °F - 59.0 °F 78% 30.03 in 10.0 mi NE 4.6 mph - N/A   Clear
12:35 AM 66.2 °F - 59.0 °F 78% 30.03 in 10.0 mi ENE 3.5 mph - N/A   Clear
12:55 AM 66.2 °F - 59.0 °F 78% 30.03 in 10.0 mi ENE 3.5 mph - N/A   Clear
1:15 AM 66.2 °F - 57.2 °F 73% 30.03 in 10.0 mi East 3.5 mph - N/A   Clear
1:35 AM 66.2 °F - 57.2 °F 73% 30.04 in 10.0 mi East 4.6 mph - N/A   Clear
1:55 AM 66.2 °F - 59.0 °F 78% 30.03 in 10.0 mi East 3.5 mph - N/A   Clear
2:15 AM 66.2 °F - 59.0 °F 78% 30.03 in 10.0 mi ESE 4.6 mph - N/A   Clear
2:35 AM 66.2 °F - 59.0 °F 78% 30.03 in 10.0 mi SSE 4.6 mph - N/A   Clear
2:55 AM 64.4 °F - 60.8 °F 88% 30.03 in 10.0 mi SE 6.9 mph - N/A   Clear
3:15 AM 64.4 °F - 60.8 °F 88% 30.03 in 10.0 mi SSE 5.8 mph - N/A   Clear
3:35 AM 64.4 °F - 60.8 °F 88% 30.04 in 10.0 mi South 4.6 mph - N/A   Clear
3:55 AM 64.4 °F - 60.8 °F 88% 30.03 in 10.0 mi Calm Calm - N/A   Clear
4:15 AM 62.6 °F - 60.8 °F 94% 30.03 in 10.0 mi SSW 4.6 mph - N/A   Clear
4:35 AM 64.4 °F - 60.8 °F 88% 30.03 in 10.0 mi Calm Calm - N/A   Clear
4:55 AM 62.6 °F - 60.8 °F 94% 30.03 in 10.0 mi West 3.5 mph - N/A   Clear
5:15 AM 62.6 °F - 60.8 °F 94% 30.04 in 10.0 mi WSW 3.5 mph - N/A   Clear
5:35 AM 62.6 °F - 60.8 °F 94% 30.03 in 10.0 mi SW 3.5 mph - N/A   Clear
5:55 AM 60.8 °F - 60.8 °F 100% 30.04 in 10.0 mi SSE 4.6 mph - N/A   Clear
6:15 AM 62.6 °F - 60.8 °F 94% 30.04 in 10.0 mi South 5.8 mph - N/A   Clear
6:35 AM 62.6 °F - 60.8 °F 94% 30.04 in 10.0 mi Calm Calm - N/A   Clear
6:55 AM 62.6 °F - 60.8 °F 94% 30.05 in 10.0 mi Calm Calm - N/A   Clear
7:15 AM 60.8 °F - 60.8 °F 100% 30.05 in 10.0 mi Calm Calm - N/A   Clear
7:35 AM 60.8 °F - 59.0 °F 94% 30.06 in 10.0 mi Calm Calm - N/A   Clear
7:55 AM 60.8 °F - 60.8 °F 100% 30.06 in 10.0 mi West 4.6 mph - N/A   Clear
8:15 AM 62.6 °F - 60.8 °F 94% 30.05 in 10.0 mi SW 5.8 mph - N/A   Clear
8:35 AM 64.4 °F - 62.6 °F 94% 30.05 in 10.0 mi WSW 6.9 mph - N/A   Clear
8:55 AM 68.0 °F - 64.4 °F 88% 30.05 in 10.0 mi SW 6.9 mph - N/A   Clear
9:15 AM 68.0 °F - 64.4 °F 88% 30.05 in 10.0 mi WSW 3.5 mph - N/A   Clear
9:55 AM 75.2 °F - 64.4 °F 69% 30.05 in 10.0 mi Calm Calm - N/A   Clear
10:15 AM 77.0 °F - 64.4 °F 65% 30.05 in 10.0 mi WSW 3.5 mph - N/A   Clear
10:35 AM 78.8 °F - 62.6 °F 57% 30.05 in 10.0 mi WSW 3.5 mph - N/A   Clear
10:55 AM 80.6 °F 82.3 °F 64.4 °F 58% 30.05 in 10.0 mi Calm Calm - N/A   Clear
11:15 AM 82.4 °F 83.4 °F 62.6 °F 51% 30.05 in 10.0 mi West 3.5 mph - N/A   Clear
11:35 AM 82.4 °F 83.9 °F 64.4 °F 54% 30.05 in 10.0 mi Calm Calm - N/A   Clear
11:55 AM 84.2 °F 85.0 °F 62.6 °F 48% 30.05 in 10.0 mi SE 3.5 mph - N/A   Clear
12:15 PM 86.0 °F 86.6 °F 62.6 °F 45% 30.04 in 10.0 mi SSW 6.9 mph - N/A   Clear
12:35 PM 86.0 °F 86.1 °F 60.8 °F 43% 30.03 in 10.0 mi West 3.5 mph - N/A   Clear
12:55 PM 86.0 °F 85.4 °F 59.0 °F 40% 30.03 in 10.0 mi West 3.5 mph - N/A   Clear
1:15 PM 87.8 °F 86.1 °F 55.4 °F 33% 30.01 in 10.0 mi WSW 3.5 mph - N/A   Clear
1:35 PM 89.6 °F 87.7 °F 55.4 °F 31% 30.01 in 10.0 mi South 4.6 mph - N/A   Clear
1:55 PM 89.6 °F 87.3 °F 53.6 °F 29% 29.99 in 10.0 mi SE 5.8 mph - N/A   Clear
2:15 PM 89.6 °F 87.3 °F 53.6 °F 29% 29.98 in 10.0 mi South 11.5 mph 16.1 mph N/A   Clear
2:55 PM 91.4 °F 89.1 °F 53.6 °F 28% 29.97 in 10.0 mi South 10.4 mph 16.1 mph N/A   Clear
3:15 PM 91.4 °F 89.1 °F 53.6 °F 28% 29.96 in 10.0 mi SSE 10.4 mph - N/A   Clear
3:35 PM 91.4 °F 89.1 °F 53.6 °F 28% 29.95 in 10.0 mi SSE 6.9 mph 18.4 mph N/A   Clear
3:55 PM 91.4 °F 89.1 °F 53.6 °F 28% 29.94 in 10.0 mi South 10.4 mph - N/A   Clear
4:15 PM 91.4 °F - 51.8 °F 26% 29.93 in 10.0 mi South 9.2 mph - N/A   Scattered Clouds
4:35 PM 91.4 °F - 50.0 °F 24% 29.92 in 10.0 mi South 6.9 mph - N/A   Clear
4:55 PM 91.4 °F - 51.8 °F 26% 29.91 in 10.0 mi SSE 9.2 mph - N/A   Clear
5:15 PM 91.4 °F - 50.0 °F 24% 29.90 in 10.0 mi South 10.4 mph - N/A   Clear
5:35 PM 91.4 °F - 50.0 °F 24% 29.90 in 10.0 mi SSE 8.1 mph - N/A   Clear
5:55 PM 89.6 °F - 50.0 °F 26% 29.90 in 10.0 mi South 9.2 mph 18.4 mph N/A   Clear
6:15 PM 91.4 °F - 51.8 °F 26% 29.90 in 10.0 mi South 9.2 mph - N/A   Clear
6:35 PM 87.8 °F 85.7 °F 53.6 °F 31% 29.91 in 10.0 mi SSE 11.5 mph - N/A   Scattered Clouds
6:55 PM 87.8 °F 85.7 °F 53.6 °F 31% 29.90 in 10.0 mi SSE 9.2 mph 19.6 mph N/A   Scattered Clouds
7:15 PM 84.2 °F 83.0 °F 55.4 °F 37% 29.90 in 10.0 mi SSE 6.9 mph - N/A   Clear
7:35 PM 86.0 °F - 51.8 °F 31% 29.90 in 10.0 mi SSE 13.8 mph 19.6 mph N/A   Scattered Clouds
7:55 PM 82.4 °F 81.4 °F 53.6 °F 37% 29.90 in 10.0 mi SSE 19.6 mph 27.6 mph N/A   Scattered Clouds
8:35 PM 80.6 °F 80.3 °F 53.6 °F 39% 29.90 in 10.0 mi SSE 17.3 mph 25.3 mph N/A   Scattered Clouds
8:55 PM 80.6 °F 80.3 °F 53.6 °F 39% 29.90 in 10.0 mi SSE 16.1 mph 23.0 mph N/A   Scattered Clouds
9:15 PM 78.8 °F - 53.6 °F 42% 29.90 in 10.0 mi SSE 17.3 mph 23.0 mph N/A   Clear
9:35 PM 78.8 °F - 55.4 °F 44% 29.91 in 10.0 mi SSE 18.4 mph 24.2 mph N/A   Clear
9:55 PM 78.8 °F - 55.4 °F 44% 29.92 in 10.0 mi SSE 19.6 mph 24.2 mph N/A   Clear
10:15 PM 78.8 °F - 55.4 °F 44% 29.92 in 10.0 mi SSE 18.4 mph - N/A   Clear
10:35 PM 78.8 °F - 53.6 °F 42% 29.92 in 10.0 mi SSE 18.4 mph 25.3 mph N/A   Clear
10:55 PM 78.8 °F - 55.4 °F 44% 29.93 in 10.0 mi South 18.4 mph 23.0 mph N/A   Clear
11:15 PM 78.8 °F - 55.4 °F 44% 29.92 in 10.0 mi South 16.1 mph - N/A   Clear
11:35 PM 77.0 °F - 55.4 °F 47% 29.92 in 10.0 mi SSE 15.0 mph 21.9 mph N/A   Clear
11:55 PM 77.0 °F - 55.4 °F 47% 29.93 in 10.0 mi SSE 12.7 mph - N/A   Clear